Wind_Speed
27 25 23 23 23 24 25 25 25 24 25 26 25 24 23 24 23 25 26 24 23 23 22 22 22 22 21 21 21 21 21 20 19 19 18 18 19 19 19 19 19 19 19 20
29 27 26 25 24 24 25 25 26 24 25 27 28 27 25 24 24 25 26 25 24 23 23 23 23 22 22 22 21 21 21 21 20 19 19 19 19 19 19 19 19 19 19 20
28 26 25 26 25 23 24 25 26 26 26 27 28 27 27 25 25 25 25 24 24 24 23 24 24 23 22 21 21 21 21 21 20 20 20 19 19 20 20 20 20 20 20 19
25 24 26 26 25 24 25 26 27 28 28 29 28 28 27 27 27 26 25 25 24 24 23 24 24 23 22 22 22 22 22 22 21 20 20 20 21 21 21 21 21 21 20 19
25 25 25 25 26 25 26 26 26 28 29 29 28 29 27 27 27 26 25 24 24 24 23 22 23 22 22 22 22 22 22 22 22 21 21 21 22 22 22 21 21 21 20 20
25 25 26 25 25 25 26 27 27 28 29 29 29 29 29 28 28 28 25 24 24 24 22 22 22 23 23 23 23 23 23 22 22 22 22 22 22 22 21 21 20 21 21 20
26 26 26 26 26 25 27 29 28 29 29 30 29 29 29 28 28 28 27 26 25 24 22 22 23 23 23 23 23 23 23 23 22 22 21 21 21 21 21 21 20 20 20 19
25 25 24 25 27 27 28 28 28 28 28 29 29 29 29 27 26 27 27 27 26 25 23 23 24 24 25 25 24 23 23 22 22 22 21 21 21 20 20 20 20 20 20 19
25 26 26 26 28 28 27 28 27 28 28 28 29 30 29 27 26 26 26 26 26 26 25 24 25 25 26 25 24 23 23 22 21 21 21 20 20 19 20 20 20 19 20 20
25 25 26 25 26 26 26 25 28 28 27 27 28 29 29 28 27 26 26 26 26 26 26 25 26 26 26 25 24 24 23 23 22 22 21 20 20 20 20 20 20 20 20 20
25 25 24 25 25 26 27 25 26 27 28 28 28 28 27 27 27 26 26 26 26 26 26 26 26 25 25 25 24 24 23 23 23 23 22 21 21 21 21 21 21 21 21 21
24 25 24 25 27 28 27 26 26 27 28 28 28 27 27 26 26 26 26 27 26 26 26 26 25 25 24 24 23 23 23 23 23 23 23 22 22 21 21 22 22 22 22 22
23 24 24 24 25 27 28 27 27 27 27 27 28 28 27 27 27 26 26 27 27 26 26 26 25 24 24 23 23 22 22 22 23 22 22 22 22 22 21 22 22 23 23 22
24 24 24 23 24 24 25 27 27 27 26 27 27 28 28 28 27 26 26 26 27 27 26 26 25 24 24 24 23 23 22 22 22 23 22 22 22 22 22 22 22 23 22 22
23 23 22 22 21 22 22 22 23 25 25 25 26 26 26 27 27 27 27 28 28 28 27 26 25 25 24 24 23 23 22 21 22 22 22 21 21 21 21 22 22 23 22 22
21 21 20 19 19 20 21 22 22 23 23 24 24 25 25 25 26 27 27 26 26 26 25 25 24 24 23 23 23 23 23 23 23 23 23 23 23 22 22 22 22 23 23 24
19 20 20 19 19 20 20 21 21 21 22 23 23 23 23 23 24 24 25 25 25 24 25 25 24 24 24 24 24 24 24 23 24 24 23 23 23 23 23 23 23 23 23 25
17 18 19 19 19 19 19 20 21 21 21 21 21 22 22 22 22 23 23 24 24 24 25 24 24 23 23 24 24 24 24 25 24 24 25 25 24 24 24 24 25 25 25 25
17 18 18 19 19 19 19 19 20 20 21 21 21 21 21 22 22 22 22 23 24 24 24 24 24 24 23 23 23 24 24 24 24 25 25 26 25 25 25 26 26 26 26 27
17 18 19 19 19 19 19 19 19 19 20 20 20 21 21 21 21 21 20 20 22 22 23 23 24 23 23 23 23 24 24 25 25 25 26 26 25 25 25 25 25 25 26 27
17 17 17 16 16 17 18 18 19 19 19 20 20 20 20 20 20 20 20 20 21 22 23 23 23 23 24 24 25 25 25 26 25 26 26 25 24 24 24 25 26 26 27 27
17 17 16 16 16 17 18 18 18 19 19 19 20 21 21 20 21 21 21 22 22 22 23 24 24 24 24 25 25 25 25 25 25 25 24 23 23 23 24 26 27 27 27 28
16 16 16 17 17 17 18 18 18 18 18 18 19 19 20 20 21 22 22 22 22 22 21 22 23 23 24 24 24 25 25 25 24 24 24 24 24 24 25 26 27 27 28 28
16 16 17 17 17 17 17 17 18 18 18 18 18 19 20 20 21 21 21 21 21 21 21 20 21 23 24 24 23 23 23 23 23 24 24 24 25 26 26 26 26 26 27 27
15 15 16 16 17 17 17 17 18 18 17 17 18 18 18 19 20 20 21 20 20 20 20 20 21 22 23 23 24 24 24 25 24 25 25 26 26 25 25 25 25 26 26 27
16 16 16 16 17 17 18 18 18 18 18 18 18 18 19 19 20 20 21 20 20 19 20 20 21 21 22 23 23 24 24 25 25 25 25 25 24 23 24 24 25 26 26 27
15 15 15 16 16 17 18 18 18 18 18 18 18 18 19 19 19 20 21 21 21 21 22 21 21 22 22 23 23 22 23 23 23 23 23 23 23 23 24 25 25 25 26 26
Wind_Direction
224 223 229 236 237 234 230 229 233 237 240 247 250 249 250 252 251 251 254 254 255 258 261 264 267 269 272 274 275 278 282 284 287 287 290 292 292 292 293 294 294 294 293 296
226 223 226 230 232 234 233 230 231 235 240 249 252 250 250 248 248 250 253 256 257 258 259 262 265 268 270 272 273 277 279 281 282 285 288 290 290 291 291 292 294 293 292 294
229 227 232 232 229 231 234 233 233 234 239 246 248 251 251 251 251 252 254 255 257 258 259 261 264 267 269 269 272 275 276 279 281 281 285 286 287 289 290 292 294 292 291 292
227 226 233 237 231 229 232 233 234 235 239 244 249 251 250 250 253 252 252 253 255 257 258 260 263 265 267 268 270 273 275 277 281 281 283 284 286 289 290 292 291 290 289 289
225 226 233 234 234 232 233 233 236 238 240 242 246 250 252 252 252 254 255 255 256 258 260 260 260 262 266 268 270 273 274 276 279 281 282 282 284 287 288 289 288 288 286 286
228 228 233 234 236 235 235 237 236 238 241 243 246 248 251 253 253 253 253 254 256 258 259 260 259 261 265 268 271 274 276 277 278 280 281 281 284 284 286 288 287 287 287 285
232 232 235 234 235 234 236 240 239 240 243 242 244 248 251 252 253 253 253 254 256 257 258 260 260 262 265 269 273 276 278 279 279 277 278 280 282 282 284 286 287 286 284 283
236 236 236 233 235 236 238 241 242 243 242 242 245 248 250 251 252 252 254 255 255 257 259 261 263 264 267 270 272 274 276 277 277 277 276 278 279 280 283 286 286 285 284 283
235 237 237 239 236 237 242 242 245 246 246 246 246 249 249 251 251 251 253 254 256 258 260 262 265 267 267 267 268 270 271 273 275 275 275 275 277 279 282 284 285 284 284 284
238 239 240 238 240 242 245 246 246 247 249 250 248 249 250 251 250 251 253 253 255 258 261 264 266 267 268 265 266 267 267 269 270 272 274 274 275 277 279 282 283 284 284 284
239 239 243 242 243 244 246 250 250 248 249 249 250 252 252 251 251 252 254 255 257 259 261 263 265 268 268 266 263 261 263 266 269 270 272 274 274 275 276 279 281 283 284 283
240 239 242 245 246 246 245 249 251 248 248 249 249 250 251 251 253 254 255 255 258 260 260 261 263 264 264 265 262 260 261 264 267 271 271 273 273 274 276 279 280 281 283 283
242 244 245 249 249 249 250 248 249 248 248 248 249 249 250 252 254 256 256 256 257 259 259 259 259 261 261 262 262 261 261 263 267 270 272 272 272 274 276 279 280 281 283 284
242 245 248 253 253 252 251 248 246 248 249 250 251 252 252 253 253 256 257 257 256 257 258 258 258 258 259 260 262 264 264 266 270 271 274 274 276 276 276 278 280 283 284 284
244 248 252 253 251 251 251 248 245 247 249 250 251 252 253 252 252 254 256 257 257 256 256 258 260 260 260 260 262 266 267 270 274 275 276 275 277 278 277 277 279 281 282 284
248 248 252 252 251 251 251 249 248 248 248 250 251 252 252 253 254 255 254 256 256 255 255 257 258 259 259 260 263 266 269 271 272 274 275 274 275 276 276 277 280 282 282 284
249 249 249 250 250 252 251 250 250 249 249 251 251 252 254 255 254 254 254 255 257 256 255 256 256 257 258 260 263 265 268 271 271 272 273 275 275 275 278 281 282 283 284 284
251 251 250 249 249 249 247 248 250 251 251 250 251 253 254 255 257 257 257 255 255 256 256 255 256 257 259 260 262 265 268 271 272 275 276 275 276 276 277 280 283 285 288 287
251 252 249 248 246 247 247 247 247 249 251 251 251 253 256 257 258 258 258 258 257 257 256 255 255 257 259 261 262 265 268 272 274 275 274 273 274 277 279 280 283 285 287 289
251 251 250 248 246 245 245 246 249 250 248 250 252 254 257 256 256 256 257 256 255 256 256 256 258 260 259 262 265 267 268 270 273 274 275 276 277 279 280 280 283 286 288 289
252 250 249 246 247 246 248 249 251 252 252 254 254 255 256 255 255 256 257 258 257 258 258 259 262 263 263 264 266 268 270 271 273 275 276 276 278 279 281 282 282 284 287 289
253 251 249 248 249 248 248 250 252 254 255 256 256 256 254 256 258 258 260 260 259 259 259 260 262 263 264 264 265 266 268 270 271 272 274 276 279 280 282 283 283 284 286 288
256 253 249 248 248 248 250 253 255 256 257 257 257 256 255 256 257 259 262 262 261 261 261 262 262 263 264 264 265 267 267 268 269 272 274 277 281 284 285 286 285 286 287 287
257 254 251 250 250 250 252 255 258 260 260 259 258 257 258 258 259 261 263 263 261 262 263 264 265 264 264 264 265 265 267 268 270 273 276 279 281 283 285 286 287 289 290 289
256 255 255 253 252 252 253 255 258 260 261 261 261 262 262 262 264 265 265 266 266 263 264 264 265 266 265 264 265 266 267 269 270 273 275 277 279 282 284 287 290 292 293 294
261 259 256 254 252 252 255 258 261 261 261 264 266 267 268 267 266 266 266 267 268 268 269 270 269 267 267 267 267 267 267 268 270 272 275 277 279 281 284 288 290 292 294 295
261 257 254 254 254 255 257 258 260 261 263 266 268 269 269 268 267 267 268 267 268 270 272 272 271 269 268 269 268 267 268 269 271 273 275 276 278 280 284 287 289 291 293 295
Height
5794 5797 5800 5802 5805 5808 5811 5814 5817 5820 5821 5820 5820 5822 5822 5823 5824 5825 5825 5826 5828 5830 5831 5831 5832 5832 5832 5832 5832 5832 5832 5831 5830 5829 5828 5827 5827 5827 5827 5826 5825 5824 5823 5822
5787 5790 5793 5796 5798 5801 5805 5808 5811 5813 5814 5814 5814 5814 5815 5817 5818 5819 5820 5821 5823 5824 5825 5826 5827 5827 5827 5827 5827 5827 5827 5827 5825 5825 5824 5824 5824 5823 5822 5821 5821 5820 5819 5818
5780 5784 5786 5789 5793 5796 5798 5801 5804 5806 5807 5807 5808 5808 5809 5811 5812 5813 5814 5816 5817 5818 5820 5820 5821 5822 5822 5822 5822 5822 5822 5822 5821 5821 5821 5820 5819 5819 5818 5817 5816 5815 5814 5814
5774 5778 5780 5785 5785 5788 5791 5793 5795 5798 5799 5800 5801 5803 5804 5805 5806 5807 5808 5810 5811 5812 5813 5815 5816 5816 5817 5817 5817 5817 5817 5817 5816 5815 5816 5815 5815 5814 5813 5812 5811 5810 5810 5809
5767 5771 5773 5777 5779 5781 5784 5786 5788 5790 5792 5793 5795 5796 5797 5798 5800 5801 5803 5804 5806 5807 5808 5809 5810 5811 5811 5812 5812 5812 5811 5811 5811 5811 5810 5810 5809 5808 5807 5806 5806 5805 5804 5804
5761 5765 5767 5771 5773 5775 5778 5779 5781 5784 5785 5787 5789 5790 5791 5792 5794 5795 5797 5798 5800 5801 5802 5803 5804 5805 5806 5806 5806 5806 5806 5805 5805 5805 5805 5804 5804 5803 5802 5801 5800 5800 5799 5799
5755 5757 5760 5764 5766 5768 5771 5772 5774 5776 5778 5780 5781 5783 5785 5786 5788 5789 5791 5793 5794 5795 5796 5797 5798 5799 5800 5800 5800 5800 5800 5799 5799 5799 5799 5799 5798 5797 5796 5796 5795 5794 5794 5794
5749 5751 5755 5757 5758 5761 5762 5764 5766 5768 5771 5773 5775 5776 5778 5780 5781 5783 5785 5786 5788 5789 5790 5791 5793 5793 5794 5794 5794 5794 5794 5794 5794 5793 5793 5793 5792 5792 5791 5790 5790 5789 5789 5789
5743 5746 5747 5748 5750 5752 5754 5756 5758 5761 5764 5766 5768 5769 5772 5774 5775 5777 5779 5780 5781 5783 5784 5785 5786 5787 5787 5787 5788 5788 5788 5788 5787 5787 5787 5787 5787 5786 5786 5786 5785 5785 5784 5784
5736 5738 5740 5741 5744 5746 5748 5750 5752 5755 5757 5759 5761 5762 5765 5767 5769 5770 5772 5774 5775 5776 5777 5779 5779 5780 5780 5780 5781 5782 5782 5782 5782 5782 5782 5781 5781 5781 5781 5781 5780 5780 5779 5779
5729 5732 5734 5735 5737 5739 5742 5744 5746 5748 5750 5752 5754 5756 5758 5760 5762 5764 5765 5767 5768 5770 5771 5772 5772 5773 5773 5774 5774 5775 5776 5776 5776 5776 5776 5776 5776 5776 5776 5775 5775 5774 5774 5773
5724 5725 5727 5729 5730 5732 5735 5737 5739 5741 5743 5745 5747 5749 5751 5753 5755 5757 5759 5760 5761 5763 5764 5765 5766 5767 5767 5767 5768 5769 5769 5770 5770 5770 5770 5770 5770 5770 5770 5770 5769 5769 5768 5767
5718 5719 5721 5723 5724 5726 5728 5730 5732 5734 5736 5738 5740 5742 5744 5747 5748 5750 5751 5753 5754 5755 5756 5758 5759 5760 5761 5762 5762 5763 5763 5764 5764 5765 5765 5765 5765 5764 5764 5764 5763 5763 5762 5761
5713 5714 5716 5717 5718 5719 5721 5722 5725 5727 5729 5731 5733 5735 5737 5739 5741 5743 5744 5746 5747 5748 5749 5750 5752 5753 5754 5755 5756 5756 5757 5758 5758 5759 5759 5759 5758 5758 5758 5758 5757 5756 5756 5755
5707 5709 5710 5711 5712 5713 5714 5715 5717 5720 5722 5724 5726 5728 5730 5732 5734 5736 5737 5738 5739 5740 5742 5743 5745 5746 5747 5749 5750 5751 5751 5752 5752 5752 5752 5752 5752 5752 5752 5751 5751 5750 5749 5749
5702 5703 5704 5705 5706 5707 5708 5710 5712 5714 5716 5718 5720 5722 5723 5725 5727 5728 5729 5731 5732 5733 5735 5736 5738 5739 5740 5742 5743 5744 5745 5745 5745 5745 5745 5745 5745 5745 5745 5745 5744 5743 5743 5742
5697 5698 5699 5700 5701 5702 5703 5705 5706 5708 5710 5712 5713 5715 5717 5718 5719 5721 5722 5724 5725 5726 5728 5729 5731 5732 5734 5735 5736 5737 5738 5738 5738 5738 5739 5739 5739 5738 5738 5738 5737 5736 5736 5735
5692 5693 5694 5695 5696 5697 5699 5700 5702 5703 5705 5706 5708 5709 5710 5712 5713 5714 5716 5717 5718 5719 5721 5722 5724 5725 5727 5728 5729 5730 5731 5731 5731 5731 5731 5731 5731 5731 5731 5730 5730 5729 5728 5727
5687 5688 5689 5690 5691 5693 5694 5695 5697 5698 5699 5701 5702 5703 5705 5706 5707 5708 5709 5710 5711 5712 5714 5715 5717 5718 5720 5721 5722 5723 5723 5724 5724 5724 5724 5723 5723 5723 5723 5723 5722 5721 5720 5719
5683 5683 5683 5684 5686 5687 5689 5690 5692 5693 5694 5696 5697 5698 5699 5700 5701 5702 5703 5704 5705 5706 5707 5708 5710 5711 5712 5714 5715 5715 5716 5716 5717 5717 5716 5715 5715 5715 5715 5714 5714 5713 5712 5711
5677 5677 5678 5679 5681 5682 5684 5686 5687 5688 5689 5691 5692 5693 5694 5695 5696 5696 5697 5698 5699 5700 5701 5702 5703 5704 5706 5707 5708 5708 5708 5709 5709 5709 5708 5708 5708 5707 5707 5706 5706 5705 5704 5703
5672 5673 5674 5675 5676 5678 5679 5681 5682 5683 5684 5685 5686 5687 5688 5689 5690 5691 5691 5692 5693 5694 5695 5696 5697 5698 5699 5699 5700 5700 5701 5701 5701 5701 5701 5700 5700 5700 5700 5699 5698 5697 5696 5695
5668 5669 5670 5671 5672 5674 5675 5676 5677 5678 5679 5680 5681 5681 5682 5683 5684 5685 5685 5686 5686 5687 5688 5689 5690 5690 5691 5691 5692 5693 5693 5693 5694 5694 5694 5693 5693 5693 5692 5691 5690 5689 5688 5686
5664 5665 5666 5667 5668 5669 5670 5671 5672 5673 5674 5674 5675 5676 5677 5678 5678 5679 5679 5680 5680 5681 5681 5682 5682 5683 5683 5684 5684 5685 5685 5686 5686 5686 5686 5685 5686 5685 5684 5683 5682 5681 5679 5677
5659 5660 5661 5662 5663 5664 5665 5666 5667 5668 5668 5669 5670 5670 5671 5671 5672 5673 5673 5673 5674 5674 5674 5675 5675 5676 5676 5676 5676 5677 5678 5678 5678 5678 5678 5678 5678 5677 5676 5675 5674 5673 5671 5669
5655 5655 5656 5657 5658 5659 5660 5661 5662 5663 5663 5663 5664 5664 5665 5665 5666 5667 5667 5667 5668 5668 5668 5668 5668 5668 5668 5669 5669 5669 5670 5670 5670 5670 5670 5670 5670 5669 5668 5667 5666 5665 5663 5661
5650 5651 5651 5652 5653 5654 5655 5656 5656 5657 5657 5658 5659 5659 5659 5660 5660 5661 5661 5661 5661 5661 5661 5661 5661 5661 5661 5661 5661 5661 5661 5661 5662 5662 5662 5662 5662 5662 5661 5660 5658 5657 5655 5653